STARLINK-33732, 63575

Orbit data source: Space-Track

STARLINK-33732, 63575 is a payload satellite owned by SpaceX/Seattle (US) in LEO that was launched on Mon, 14 Apr 2025 UTC via an FALCON 9 launch vehicle from the Air Force Eastern Test Range (AFETR). Payload-class satellites include a variety of spacecraft equipped with specific instruments for various scientific and technological missions. These include communications satellites like Starlink; space stations such as the ISS; scientific satellites like the Hubble; Earth observation satellites from companies like Planet Labs, Umbra, and HawkEye 360; GPS; miniature CubeSats for education and research; and military/defense satellites.

Loading next visibility...
Identifier
63575, 2025-076G
Orbit
LEO
Country
Flag of USUS
Related business
Manufacturer
SpaceX/Seattle
Mission
Operational Commercial Communications
Bus & Motor
STARLINK V2MO, Unknown motor
Mass
575 kg wet, ~530 kg dry
Launch date (UTC)
2025-04-14 (8 months ago)
Launch vehicle
FALCON 9
Launch site
Air Force Eastern Test Range (AFETR)
Object type
Payload
Rocket body
Debris
Shape & HBR
Box + 2 Pan, 17.7 m
Radar Cross Section
36.964 m², Large (>1 m²)

Expand to show TLE details & history
Last TLE update: 22 hours ago

TLE from 22 hours ago
0 STARLINK-33732
1 63575U 25076G   25347.67354949  .00027622  00000-0  10080-2 0  9994
2 63575  43.0020  87.6188 0000972 279.0815  80.9926 15.27630923 38671
Epoch: 2025-12-13T16:09Z
TLE epoch observation values (Epoch: 2025-12-13T16:09:54.675Z)
Latitude
-0.00008°
Longitude
122.54346°
Altitude
482.568 km
Speed
7.626 km/s
True Right ascension
05h 50m 28s
True Declination
0° 00' 00"
Sunlit
Object was in full shadow at epoch
Visualization orbit readout
Latitude
Unknown
Longitude
Unknown
Altitude
Unknown
Speed
Unknown
Apparent Right ascension
Unknown
Apparent Declination
Unknown
Sunlit
N/A
Visualization observer readout
Local Sidereal Time
13:01:23
Azimuth
Unknown
Elevation
Unknown
Doppler factor
Unknown
Orbital elements
Apogee altitude
485.509 km
Perigee altitude
484.174 km
Semi-major axis
6,862.978 km
Eccentricity
0.0001
Inclination
43.002°
RAAN
87.6188°
Arg. of periapsis
279.0815°
True anomaly
81.0036°
Mean anomaly
80.9926°
Eccentric anomaly
80.9981°
Mean motion
3.81746 °/min
Orbital period
94.3 mins
BSTAR
0.001008
Loading maneuver chart data...
Computing Atmospheric mass density...
Loading historical data...
Loading historical data...
Loading historical data...
Loading historical data...
Loading historical data...
Loading historical data...
Loading historical data...

Documentation

Showing up to 5 results
|